Oceanside, CA

6:37 PM PST on November 21, 2017 (GMT -0800)
Oceanside Municipal

Weather History for KOKB - January, 2013

Change the Weather History Date:

Tuesday, January 22, 2013

  Actual Average Record
Temperature  
Mean Temperature 58 °F 53 °F  
Max Temperature 80 °F 66 °F 80 °F (2013)
Min Temperature 35 °F 41 °F 29 °F (2007)
Degree Days  
Heating Degree Days 7 12  
Month to date heating degree days 340 269  
Since 1 July heating degree days 935 1003  
Cooling Degree Days 0 0  
Month to date cooling degree days 0 0  
Year to date cooling degree days 0 0  
Growing Degree Days 8 (Base 50)    
Moisture  
Dew Point 25 °F    
Average Humidity 34    
Maximum Humidity 59    
Minimum Humidity 9    
Precipitation  
Precipitation 0.00 in 0.07 in 0.37 in (2010)
Month to date precipitation 0.37 2.15  
Year to date precipitation 0.37 2.15  
Since 1 July precipitation 4.21  
Snow  
Snow 0.00 in - - ()
Month to date snowfall 0.0  
Year to date snowfall 0.0  
Snow Depth 0.00 in    
Sea Level Pressure  
Sea Level Pressure 30.05 in    
Wind  
Wind Speed 3 mph (NNE)    
Max Wind Speed 10 mph    
Max Gust Speed 15 mph    
Visibility 10 miles    
Events      
T = Trace of Precipitation, MM = Missing Value Source: NWS Daily Summary

Daily Weather History Graph

Daily Weather History Graph

Search for Another Location

Airport or City:

Trip Planner

Search our weather history database for the weather conditions in past years. The results will help you decide how hot, cold, wet, or windy it might be!

Date:

Astronomy

Jan. 22, 2013 Rise Set
Actual Time 6:50 AM PST 5:12 PM PST
Civil Twilight 6:24 AM PST 5:38 PM PST
Nautical Twilight 5:53 AM PST 6:08 PM PST
Astronomical Twilight 5:24 AM PST 6:38 PM PST
Moon 1:40 PM PST 3:13 AM PST
Length of Visible Light 11h 14m
Length of Day
10h 21m
Waxing Gibbous, 83% of the Moon is Illuminated
Jan 22
Waxing Gibbous
Jan 26
Full
Feb 3
Last Quarter
Feb 9
New
Feb 17
First Quarter

Hourly Weather History & Observations

Time (PST) Temp. Windchill Dew Point Humidity Pressure Visibility Wind Dir Wind Speed Gust Speed Precip Events Conditions
12:52 AM 42.1 °F 40.2 °F 25.0 °F 51% 30.06 in 10.0 mi NNE 3.5 mph - N/A   Clear
1:52 AM 39.0 °F - 25.0 °F 57% 30.06 in 10.0 mi Calm Calm - N/A   Clear
2:52 AM 39.0 °F - 23.0 °F 53% 30.05 in 10.0 mi Calm Calm - N/A   Clear
3:52 AM 36.0 °F 33.3 °F 23.0 °F 59% 30.05 in 10.0 mi NE 3.5 mph - N/A   Clear
4:52 AM 39.0 °F - 21.0 °F 49% 30.06 in 10.0 mi Calm Calm - N/A   Clear
5:52 AM 39.9 °F - 19.9 °F 45% 30.07 in 10.0 mi Calm Calm - N/A   Clear
6:52 AM 35.1 °F - 21.0 °F 57% 30.08 in 10.0 mi Calm Calm - N/A   Clear
7:52 AM 45.0 °F 43.5 °F 21.9 °F 40% 30.08 in 10.0 mi NE 3.5 mph - N/A   Clear
8:52 AM 57.0 °F - 21.9 °F 26% 30.08 in 10.0 mi Variable 3.5 mph - N/A   Clear
9:52 AM 66.0 °F - 21.9 °F 19% 30.08 in 10.0 mi ENE 6.9 mph - N/A   Clear
10:52 AM 73.9 °F - 21.9 °F 14% 30.07 in 10.0 mi Calm Calm - N/A   Clear
11:52 AM 80.1 °F - 18.0 °F 10% 30.01 in 10.0 mi East 4.6 mph - N/A   Clear
12:52 PM 75.9 °F - 30.0 °F 19% 30.00 in 10.0 mi West 5.8 mph - N/A   Clear
1:52 PM 71.1 °F - 23.0 °F 16% 30.00 in 10.0 mi West 5.8 mph - N/A   Clear
2:52 PM 71.1 °F - 28.9 °F 21% 30.01 in 10.0 mi Variable 3.5 mph - N/A   Clear
3:52 PM 70.0 °F - 19.9 °F 15% 30.01 in 10.0 mi WSW 3.5 mph - N/A   Clear
4:52 PM 64.9 °F - 33.1 °F 31% 30.02 in 10.0 mi Calm Calm - N/A   Clear
5:52 PM 55.0 °F - 28.0 °F 35% 30.03 in 10.0 mi Calm Calm - N/A   Clear
6:52 PM 50.0 °F - 28.9 °F 44% 30.05 in 10.0 mi Calm Calm - N/A   Clear
7:52 PM 50.0 °F - 27.0 °F 41% 30.05 in 10.0 mi Calm Calm - N/A   Clear
8:52 PM 48.0 °F - 28.9 °F 48% 30.06 in 10.0 mi Calm Calm - N/A   Clear
9:52 PM 44.1 °F - 28.9 °F 55% 30.06 in 10.0 mi Calm Calm - N/A   Clear
10:52 PM 43.0 °F - 30.0 °F 60% 30.06 in 10.0 mi Calm Calm - N/A   Clear
11:52 PM 46.9 °F - 28.9 °F 50% 30.05 in 10.0 mi Calm Calm - N/A   Clear